Year,Month,Day,Hour,Minute,Value (Times are PST for temperature in C)
2006,07,21,00,00,19.90
2006,07,21,00,01,19.90
2006,07,21,00,02,19.90
2006,07,21,00,03,19.90
2006,07,21,00,04,19.90
2006,07,21,00,05,19.70
2006,07,21,00,06,19.70
2006,07,21,00,07,19.60
2006,07,21,00,08,19.60
2006,07,21,00,09,19.60
2006,07,21,00,10,19.50
2006,07,21,00,11,19.50
2006,07,21,00,12,19.40
2006,07,21,00,13,19.40
2006,07,21,00,14,19.30
2006,07,21,00,15,19.30
2006,07,21,00,16,19.20
2006,07,21,00,17,19.10
2006,07,21,00,18,19.10
2006,07,21,00,19,19.10
2006,07,21,00,20,19.10
2006,07,21,00,21,19.00
2006,07,21,00,22,18.90
2006,07,21,00,23,18.90
2006,07,21,00,24,18.90
2006,07,21,00,25,18.90
2006,07,21,00,26,18.90
2006,07,21,00,27,18.90
2006,07,21,00,28,18.90
2006,07,21,00,29,18.90
2006,07,21,00,30,18.90
2006,07,21,00,31,18.90
2006,07,21,00,32,18.90
2006,07,21,00,33,18.90
2006,07,21,00,34,18.80
2006,07,21,00,35,18.80
2006,07,21,00,36,18.80
2006,07,21,00,37,18.70
2006,07,21,00,38,18.70
2006,07,21,00,39,18.70
2006,07,21,00,40,18.70
2006,07,21,00,41,18.70
2006,07,21,00,42,18.60
2006,07,21,00,43,18.60
2006,07,21,00,44,18.60
2006,07,21,00,45,18.60
2006,07,21,00,46,18.60
2006,07,21,00,47,18.70
2006,07,21,00,48,18.70
2006,07,21,00,49,18.70
2006,07,21,00,50,18.80
2006,07,21,00,51,18.80
2006,07,21,00,52,18.80
2006,07,21,00,53,18.80
2006,07,21,00,54,18.80
2006,07,21,00,55,18.80
2006,07,21,00,56,18.80
2006,07,21,00,57,18.80
2006,07,21,00,58,18.80
2006,07,21,00,59,18.80
2006,07,21,01,00,18.80
2006,07,21,01,01,18.80
2006,07,21,01,02,18.80
2006,07,21,01,03,18.80
2006,07,21,01,04,18.80
2006,07,21,01,05,18.80
2006,07,21,01,06,18.80
2006,07,21,01,07,18.80
2006,07,21,01,08,18.80
2006,07,21,01,09,18.80
2006,07,21,01,10,18.80
2006,07,21,01,11,18.80
2006,07,21,01,12,18.80
2006,07,21,01,13,18.80
2006,07,21,01,14,18.80
2006,07,21,01,15,18.80
2006,07,21,01,16,18.80
2006,07,21,01,17,18.80
2006,07,21,01,18,18.80
2006,07,21,01,19,18.80
2006,07,21,01,20,18.80
2006,07,21,01,21,18.80
2006,07,21,01,22,18.70
2006,07,21,01,23,18.70
2006,07,21,01,24,18.70
2006,07,21,01,25,18.70
2006,07,21,01,26,18.70
2006,07,21,01,27,18.80
2006,07,21,01,28,18.80
2006,07,21,01,29,18.80
2006,07,21,01,30,18.80
2006,07,21,01,31,18.80
2006,07,21,01,32,18.80
2006,07,21,01,33,18.80
2006,07,21,01,34,18.80
2006,07,21,01,35,18.80
2006,07,21,01,36,18.80
2006,07,21,01,37,18.80
2006,07,21,01,38,18.70
2006,07,21,01,39,18.80
2006,07,21,01,40,18.80
2006,07,21,01,41,18.80
2006,07,21,01,42,18.70
2006,07,21,01,43,18.70
2006,07,21,01,44,18.70
2006,07,21,01,45,18.70
2006,07,21,01,46,18.70
2006,07,21,01,47,18.70
2006,07,21,01,48,18.60
2006,07,21,01,49,18.60
2006,07,21,01,50,18.60
2006,07,21,01,51,18.60
2006,07,21,01,52,18.60
2006,07,21,01,53,18.60
2006,07,21,01,54,18.50
2006,07,21,01,55,18.50
2006,07,21,01,56,18.50
2006,07,21,01,57,18.50
2006,07,21,01,58,18.50
2006,07,21,01,59,18.50
2006,07,21,02,00,18.50
2006,07,21,02,01,18.60
2006,07,21,02,02,18.60
2006,07,21,02,03,18.60
2006,07,21,02,04,18.60
2006,07,21,02,05,18.70
2006,07,21,02,06,18.70
2006,07,21,02,07,18.70
2006,07,21,02,08,18.70
2006,07,21,02,09,18.80
2006,07,21,02,10,18.80
2006,07,21,02,11,18.80
2006,07,21,02,12,18.80
2006,07,21,02,13,18.90
2006,07,21,02,14,18.90
2006,07,21,02,15,18.90
2006,07,21,02,16,18.90
2006,07,21,02,17,18.90
2006,07,21,02,18,18.90
2006,07,21,02,19,18.90
2006,07,21,02,20,18.90
2006,07,21,02,21,18.90
2006,07,21,02,22,19.00
2006,07,21,02,23,19.10
2006,07,21,02,24,19.10
2006,07,21,02,25,19.10
2006,07,21,02,26,19.10
2006,07,21,02,27,19.20
2006,07,21,02,28,19.20
2006,07,21,02,29,19.30
2006,07,21,02,30,19.30
2006,07,21,02,31,19.30
2006,07,21,02,32,19.30
2006,07,21,02,33,19.40
2006,07,21,02,34,19.40
2006,07,21,02,35,19.40
2006,07,21,02,36,19.40
2006,07,21,02,37,19.30
2006,07,21,02,38,19.30
2006,07,21,02,39,19.20
2006,07,21,02,40,19.10
2006,07,21,02,41,19.00
2006,07,21,02,42,18.90
2006,07,21,02,43,18.80
2006,07,21,02,44,18.70
2006,07,21,02,45,18.60
2006,07,21,02,46,18.60
2006,07,21,02,47,18.60
2006,07,21,02,48,18.60
2006,07,21,02,49,18.60
2006,07,21,02,50,18.60
2006,07,21,02,51,18.50
2006,07,21,02,52,18.50
2006,07,21,02,53,18.70
2006,07,21,02,54,18.80
2006,07,21,02,55,18.90
2006,07,21,02,56,18.90
2006,07,21,02,57,18.90
2006,07,21,02,58,18.90
2006,07,21,02,59,18.90
2006,07,21,03,00,18.90
2006,07,21,03,01,18.90
2006,07,21,03,02,18.80
2006,07,21,03,03,18.80
2006,07,21,03,04,18.70
2006,07,21,03,05,18.70
2006,07,21,03,06,18.70
2006,07,21,03,07,18.60
2006,07,21,03,08,18.60
2006,07,21,03,09,18.50
2006,07,21,03,10,18.40
2006,07,21,03,11,18.40
2006,07,21,03,12,18.30
2006,07,21,03,13,18.30
2006,07,21,03,14,18.20
2006,07,21,03,15,18.20
2006,07,21,03,16,18.20
2006,07,21,03,17,18.20
2006,07,21,03,18,18.10
2006,07,21,03,19,18.00
2006,07,21,03,20,17.90
2006,07,21,03,21,17.90
2006,07,21,03,22,17.90
2006,07,21,03,23,17.90
2006,07,21,03,24,17.80
2006,07,21,03,25,17.90
2006,07,21,03,26,18.10
2006,07,21,03,27,18.30
2006,07,21,03,28,18.60
2006,07,21,03,29,18.70
2006,07,21,03,30,18.80
2006,07,21,03,31,19.10
2006,07,21,03,32,19.10
2006,07,21,03,33,19.30
2006,07,21,03,34,19.60
2006,07,21,03,35,19.80
2006,07,21,03,36,19.90
2006,07,21,03,37,19.90
2006,07,21,03,38,19.90
2006,07,21,03,39,19.90
2006,07,21,03,40,19.90
2006,07,21,03,41,19.80
2006,07,21,03,42,19.70
2006,07,21,03,43,19.60
2006,07,21,03,44,19.50
2006,07,21,03,45,19.50
2006,07,21,03,46,19.40
2006,07,21,03,47,19.40
2006,07,21,03,48,19.40
2006,07,21,03,49,19.40
2006,07,21,03,50,19.40
2006,07,21,03,51,19.40
2006,07,21,03,52,19.40
2006,07,21,03,53,19.30
2006,07,21,03,54,19.30
2006,07,21,03,55,19.30
2006,07,21,03,56,19.30
2006,07,21,03,57,19.30
2006,07,21,03,58,19.30
2006,07,21,03,59,19.30
2006,07,21,04,00,19.20
2006,07,21,04,01,19.20
2006,07,21,04,02,19.10
2006,07,21,04,03,19.10
2006,07,21,04,04,19.10
2006,07,21,04,05,19.00
2006,07,21,04,06,18.90
2006,07,21,04,07,18.90
2006,07,21,04,08,18.90
2006,07,21,04,09,18.90
2006,07,21,04,10,18.80
2006,07,21,04,11,18.80
2006,07,21,04,12,18.70
2006,07,21,04,13,18.70
2006,07,21,04,14,18.70
2006,07,21,04,15,18.60
2006,07,21,04,16,18.60
2006,07,21,04,17,18.60
2006,07,21,04,18,18.50
2006,07,21,04,19,18.50
2006,07,21,04,20,18.40
2006,07,21,04,21,18.40
2006,07,21,04,22,18.30
2006,07,21,04,23,18.20
2006,07,21,04,24,18.20
2006,07,21,04,25,18.20
2006,07,21,04,26,18.20
2006,07,21,04,27,18.00
2006,07,21,04,28,17.90
2006,07,21,04,29,17.80
2006,07,21,04,30,17.70
2006,07,21,04,31,17.60
2006,07,21,04,32,17.50
2006,07,21,04,33,17.50
2006,07,21,04,34,17.40
2006,07,21,04,35,17.30
2006,07,21,04,36,17.30
2006,07,21,04,37,17.30
2006,07,21,04,38,17.30
2006,07,21,04,39,17.20
2006,07,21,04,40,17.20
2006,07,21,04,41,17.20
2006,07,21,04,42,17.10
2006,07,21,04,43,17.10
2006,07,21,04,44,17.00
2006,07,21,04,45,17.00
2006,07,21,04,46,17.00
2006,07,21,04,47,17.00
2006,07,21,04,48,17.10
2006,07,21,04,49,17.10
2006,07,21,04,50,17.20
2006,07,21,04,51,17.30
2006,07,21,04,52,17.30
2006,07,21,04,53,17.30
2006,07,21,04,54,17.30
2006,07,21,04,55,17.30
2006,07,21,04,56,17.30
2006,07,21,04,57,17.30
2006,07,21,04,58,17.20
2006,07,21,04,59,17.20
2006,07,21,05,00,17.20
2006,07,21,05,01,17.20
2006,07,21,05,02,17.10
2006,07,21,05,03,17.10
2006,07,21,05,04,17.10
2006,07,21,05,05,17.20
2006,07,21,05,06,17.20
2006,07,21,05,07,17.30
2006,07,21,05,08,17.30
2006,07,21,05,09,17.30
2006,07,21,05,10,17.40
2006,07,21,05,11,17.40
2006,07,21,05,12,17.50
2006,07,21,05,13,17.50
2006,07,21,05,14,17.60
2006,07,21,05,15,17.60
2006,07,21,05,16,17.70
2006,07,21,05,17,17.70
2006,07,21,05,18,17.70
2006,07,21,05,19,17.80
2006,07,21,05,20,17.80
2006,07,21,05,21,17.80
2006,07,21,05,22,17.80
2006,07,21,05,23,17.70
2006,07,21,05,24,17.70
2006,07,21,05,25,17.70
2006,07,21,05,26,17.60
2006,07,21,05,27,17.60
2006,07,21,05,28,17.60
2006,07,21,05,29,17.50
2006,07,21,05,30,17.50
2006,07,21,05,31,17.40
2006,07,21,05,32,17.40
2006,07,21,05,33,17.40
2006,07,21,05,34,17.30
2006,07,21,05,35,17.30
2006,07,21,05,36,17.30
2006,07,21,05,37,17.30
2006,07,21,05,38,17.30
2006,07,21,05,39,17.30
2006,07,21,05,40,17.30
2006,07,21,05,41,17.30
2006,07,21,05,42,17.30
2006,07,21,05,43,17.30
2006,07,21,05,44,17.30
2006,07,21,05,45,17.30
2006,07,21,05,46,17.30
2006,07,21,05,47,17.30
2006,07,21,05,48,17.30
2006,07,21,05,49,17.30
2006,07,21,05,50,17.30
2006,07,21,05,51,17.40
2006,07,21,05,52,17.40
2006,07,21,05,53,17.40
2006,07,21,05,54,17.50
2006,07,21,05,55,17.50
2006,07,21,05,56,17.50
2006,07,21,05,57,17.50
2006,07,21,05,58,17.50
2006,07,21,05,59,17.60
2006,07,21,06,00,17.60
2006,07,21,06,01,17.60
2006,07,21,06,02,17.70
2006,07,21,06,03,17.70
2006,07,21,06,04,17.70
2006,07,21,06,05,17.70
2006,07,21,06,06,17.80
2006,07,21,06,07,17.80
2006,07,21,06,08,17.80
2006,07,21,06,09,17.80
2006,07,21,06,10,17.90
2006,07,21,06,11,17.90
2006,07,21,06,12,17.90
2006,07,21,06,13,17.90
2006,07,21,06,14,17.90
2006,07,21,06,15,17.90
2006,07,21,06,16,17.90
2006,07,21,06,17,17.90
2006,07,21,06,18,17.90
2006,07,21,06,19,17.90
2006,07,21,06,20,17.90
2006,07,21,06,21,17.90
2006,07,21,06,22,18.00
2006,07,21,06,23,18.10
2006,07,21,06,24,18.20
2006,07,21,06,25,18.20
2006,07,21,06,26,18.30
2006,07,21,06,27,18.40
2006,07,21,06,28,18.40
2006,07,21,06,29,18.50
2006,07,21,06,30,18.50
2006,07,21,06,31,18.50
2006,07,21,06,32,18.50
2006,07,21,06,33,18.50
2006,07,21,06,34,18.50
2006,07,21,06,35,18.50
2006,07,21,06,36,18.50
2006,07,21,06,37,18.50
2006,07,21,06,38,18.40
2006,07,21,06,39,18.30
2006,07,21,06,40,18.30
2006,07,21,06,41,18.20
2006,07,21,06,42,18.10
2006,07,21,06,43,17.90
2006,07,21,06,44,17.80
2006,07,21,06,45,17.70
2006,07,21,06,46,17.60
2006,07,21,06,47,17.50
2006,07,21,06,48,17.50
2006,07,21,06,49,17.40
2006,07,21,06,50,17.30
2006,07,21,06,51,17.30
2006,07,21,06,52,17.30
2006,07,21,06,53,17.50
2006,07,21,06,54,17.70
2006,07,21,06,55,18.00
2006,07,21,06,56,18.30
2006,07,21,06,57,18.60
2006,07,21,06,58,18.90
2006,07,21,06,59,19.20
2006,07,21,07,00,19.50
2006,07,21,07,01,19.70
2006,07,21,07,02,20.00
2006,07,21,07,03,20.20
2006,07,21,07,04,20.30
2006,07,21,07,05,20.50
2006,07,21,07,06,20.60
2006,07,21,07,07,20.70
2006,07,21,07,08,20.80
2006,07,21,07,09,20.90
2006,07,21,07,10,20.90
2006,07,21,07,11,21.00
2006,07,21,07,12,21.00
2006,07,21,07,13,21.00
2006,07,21,07,14,21.10
2006,07,21,07,15,21.10
2006,07,21,07,16,21.10
2006,07,21,07,17,21.20
2006,07,21,07,18,21.20
2006,07,21,07,19,21.30
2006,07,21,07,20,21.30
2006,07,21,07,21,21.30
2006,07,21,07,22,21.30
2006,07,21,07,23,21.30
2006,07,21,07,24,21.30
2006,07,21,07,25,21.30
2006,07,21,07,26,21.30
2006,07,21,07,27,21.30
2006,07,21,07,28,21.30
2006,07,21,07,29,21.40
2006,07,21,07,30,21.40
2006,07,21,07,31,21.50
2006,07,21,07,32,21.60
2006,07,21,07,33,21.60
2006,07,21,07,34,21.60
2006,07,21,07,35,21.60
2006,07,21,07,36,21.70
2006,07,21,07,37,21.70
2006,07,21,07,38,21.70
2006,07,21,07,39,21.80
2006,07,21,07,40,21.80
2006,07,21,07,41,21.90
2006,07,21,07,42,21.90
2006,07,21,07,43,21.90
2006,07,21,07,44,22.00
2006,07,21,07,45,22.00
2006,07,21,07,46,22.10
2006,07,21,07,47,22.20
2006,07,21,07,48,22.20
2006,07,21,07,49,22.30
2006,07,21,07,50,22.30
2006,07,21,07,51,22.30
2006,07,21,07,52,22.40
2006,07,21,07,53,22.40
2006,07,21,07,54,22.50
2006,07,21,07,55,22.50
2006,07,21,07,56,22.60
2006,07,21,07,57,22.60
2006,07,21,07,58,22.60
2006,07,21,07,59,22.70
2006,07,21,08,00,22.70
2006,07,21,08,01,22.80
2006,07,21,08,02,22.80
2006,07,21,08,03,22.80
2006,07,21,08,04,22.90
2006,07,21,08,05,22.90
2006,07,21,08,06,23.00
2006,07,21,08,07,23.10
2006,07,21,08,08,23.20
2006,07,21,08,09,23.30
2006,07,21,08,10,23.30
2006,07,21,08,11,23.40
2006,07,21,08,12,23.50
2006,07,21,08,13,23.60
2006,07,21,08,14,23.70
2006,07,21,08,15,23.70
2006,07,21,08,16,23.80
2006,07,21,08,17,23.80
2006,07,21,08,18,23.90
2006,07,21,08,19,24.00
2006,07,21,08,20,24.10
2006,07,21,08,21,24.10
2006,07,21,08,22,24.10
2006,07,21,08,23,24.20
2006,07,21,08,24,24.20
2006,07,21,08,25,24.30
2006,07,21,08,26,24.30
2006,07,21,08,27,24.30
2006,07,21,08,28,24.30
2006,07,21,08,29,24.30
2006,07,21,08,30,24.40
2006,07,21,08,31,24.40
2006,07,21,08,32,24.50
2006,07,21,08,33,24.50
2006,07,21,08,34,24.50
2006,07,21,08,35,24.50
2006,07,21,08,36,24.50
2006,07,21,08,37,24.60
2006,07,21,08,38,24.60
2006,07,21,08,39,24.70
2006,07,21,08,40,24.70
2006,07,21,08,41,24.70
2006,07,21,08,42,24.80
2006,07,21,08,43,24.80
2006,07,21,08,44,24.70
2006,07,21,08,45,24.70
2006,07,21,08,46,24.60
2006,07,21,08,47,24.60
2006,07,21,08,48,24.60
2006,07,21,08,49,24.60
2006,07,21,08,50,24.50
2006,07,21,08,51,24.50
2006,07,21,08,52,24.50
2006,07,21,08,53,24.60
2006,07,21,08,54,24.60
2006,07,21,08,55,24.70
2006,07,21,08,56,24.70
2006,07,21,08,57,24.80
2006,07,21,08,58,24.90
2006,07,21,08,59,24.90
2006,07,21,09,00,24.90
2006,07,21,09,01,25.00
2006,07,21,09,02,24.90
2006,07,21,09,03,24.90
2006,07,21,09,04,24.80
2006,07,21,09,05,24.80
2006,07,21,09,06,24.70
2006,07,21,09,07,24.70
2006,07,21,09,08,24.60
2006,07,21,09,09,24.50
2006,07,21,09,10,24.40
2006,07,21,09,11,24.40
2006,07,21,09,12,24.40
2006,07,21,09,13,24.40
2006,07,21,09,14,24.50
2006,07,21,09,15,24.50
2006,07,21,09,16,24.60
2006,07,21,09,17,24.60
2006,07,21,09,18,24.70
2006,07,21,09,19,24.70
2006,07,21,09,20,24.70
2006,07,21,09,21,24.60
2006,07,21,09,22,24.60
2006,07,21,09,23,24.60
2006,07,21,09,24,24.60
2006,07,21,09,25,24.50
2006,07,21,09,26,24.50
2006,07,21,09,27,24.50
2006,07,21,09,28,24.50
2006,07,21,09,29,24.60
2006,07,21,09,30,24.60
2006,07,21,09,31,24.70
2006,07,21,09,32,24.70
2006,07,21,09,33,24.80
2006,07,21,09,34,24.80
2006,07,21,09,35,24.90
2006,07,21,09,36,24.90
2006,07,21,09,37,25.00
2006,07,21,09,38,25.10
2006,07,21,09,39,25.10
2006,07,21,09,40,25.10
2006,07,21,09,41,25.20
2006,07,21,09,42,25.30
2006,07,21,09,43,25.30
2006,07,21,09,44,25.30
2006,07,21,09,45,25.30
2006,07,21,09,46,25.30
2006,07,21,09,47,25.30
2006,07,21,09,48,25.30
2006,07,21,09,49,25.30
2006,07,21,09,50,25.30
2006,07,21,09,51,25.30
2006,07,21,09,52,25.30
2006,07,21,09,53,25.30
2006,07,21,09,54,25.40
2006,07,21,09,55,25.40
2006,07,21,09,56,25.50
2006,07,21,09,57,25.70
2006,07,21,09,58,25.70
2006,07,21,09,59,25.70
2006,07,21,10,00,25.70
2006,07,21,10,01,25.70
2006,07,21,10,02,25.70
2006,07,21,10,03,25.70
2006,07,21,10,04,25.70
2006,07,21,10,05,25.70
2006,07,21,10,06,25.80
2006,07,21,10,07,25.80
2006,07,21,10,08,25.90
2006,07,21,10,09,25.90
2006,07,21,10,10,25.90
2006,07,21,10,11,26.00
2006,07,21,10,12,26.00
2006,07,21,10,13,26.10
2006,07,21,10,14,26.10
2006,07,21,10,15,26.00
2006,07,21,10,16,26.00
2006,07,21,10,17,26.00
2006,07,21,10,18,25.90
2006,07,21,10,19,25.90
2006,07,21,10,20,25.80
2006,07,21,10,21,25.80
2006,07,21,10,22,25.80
2006,07,21,10,23,25.80
2006,07,21,10,24,25.90
2006,07,21,10,25,26.00
2006,07,21,10,26,26.00
2006,07,21,10,27,26.10
2006,07,21,10,28,26.20
2006,07,21,10,29,26.20
2006,07,21,10,30,26.30
2006,07,21,10,31,26.40
2006,07,21,10,32,26.40
2006,07,21,10,33,26.50
2006,07,21,10,34,26.60
2006,07,21,10,35,26.60
2006,07,21,10,36,26.60
2006,07,21,10,37,26.60
2006,07,21,10,38,26.60
2006,07,21,10,39,26.70
2006,07,21,10,40,26.80
2006,07,21,10,41,26.80
2006,07,21,10,42,26.90
2006,07,21,10,43,27.10
2006,07,21,10,44,27.10
2006,07,21,10,45,27.20
2006,07,21,10,46,27.20
2006,07,21,10,47,27.20
2006,07,21,10,48,27.10
2006,07,21,10,49,27.10
2006,07,21,10,50,27.10
2006,07,21,10,51,27.10
2006,07,21,10,52,27.10
2006,07,21,10,53,27.10
2006,07,21,10,54,27.10
2006,07,21,10,55,27.20
2006,07,21,10,56,27.20
2006,07,21,10,57,27.20
2006,07,21,10,58,27.20
2006,07,21,10,59,27.20
2006,07,21,11,00,27.20
2006,07,21,11,01,27.20
2006,07,21,11,02,27.20
2006,07,21,11,03,27.20
2006,07,21,11,04,27.20
2006,07,21,11,05,27.10
2006,07,21,11,06,27.10
2006,07,21,11,07,27.10
2006,07,21,11,08,27.10
2006,07,21,11,09,27.10
2006,07,21,11,10,27.10
2006,07,21,11,11,27.10
2006,07,21,11,12,27.20
2006,07,21,11,13,27.20
2006,07,21,11,14,27.30
2006,07,21,11,15,27.30
2006,07,21,11,16,27.30
2006,07,21,11,17,27.30
2006,07,21,11,18,27.30
2006,07,21,11,19,27.40
2006,07,21,11,20,27.40
2006,07,21,11,21,27.50
2006,07,21,11,22,27.60
2006,07,21,11,23,27.60
2006,07,21,11,24,27.60
2006,07,21,11,25,27.60
2006,07,21,11,26,27.60
2006,07,21,11,27,27.70
2006,07,21,11,28,27.70
2006,07,21,11,29,27.70
2006,07,21,11,30,27.70
2006,07,21,11,31,27.70
2006,07,21,11,32,27.80
2006,07,21,11,33,27.80
2006,07,21,11,34,27.90
2006,07,21,11,35,27.90
2006,07,21,11,36,27.90
2006,07,21,11,37,27.90
2006,07,21,11,38,28.00
2006,07,21,11,39,28.00
2006,07,21,11,40,28.00
2006,07,21,11,41,28.00
2006,07,21,11,42,27.90
2006,07,21,11,43,27.90
2006,07,21,11,44,27.90
2006,07,21,11,45,27.90
2006,07,21,11,46,27.90
2006,07,21,11,47,27.80
2006,07,21,11,48,27.80
2006,07,21,11,49,27.70
2006,07,21,11,50,27.70
2006,07,21,11,51,27.80
2006,07,21,11,52,27.80
2006,07,21,11,53,27.80
2006,07,21,11,54,27.80
2006,07,21,11,55,27.70
2006,07,21,11,56,27.70
2006,07,21,11,57,27.80
2006,07,21,11,58,27.90
2006,07,21,11,59,27.90
2006,07,21,12,00,27.90
2006,07,21,12,01,27.90
2006,07,21,12,02,28.10
2006,07,21,12,03,28.20
2006,07,21,12,04,28.20
2006,07,21,12,05,28.30
2006,07,21,12,06,28.40
2006,07,21,12,07,28.40
2006,07,21,12,08,28.30
2006,07,21,12,09,28.20
2006,07,21,12,10,28.10
2006,07,21,12,11,28.10
2006,07,21,12,12,27.90
2006,07,21,12,13,27.90
2006,07,21,12,14,27.90
2006,07,21,12,15,27.80
2006,07,21,12,16,27.80
2006,07,21,12,17,27.80
2006,07,21,12,18,27.80
2006,07,21,12,19,27.80
2006,07,21,12,20,27.80
2006,07,21,12,21,27.90
2006,07,21,12,22,27.90
2006,07,21,12,23,28.00
2006,07,21,12,24,28.10
2006,07,21,12,25,28.20
2006,07,21,12,26,28.20
2006,07,21,12,27,28.30
2006,07,21,12,28,28.30
2006,07,21,12,29,28.30
2006,07,21,12,30,28.40
2006,07,21,12,31,28.50
2006,07,21,12,32,28.50
2006,07,21,12,33,28.40
2006,07,21,12,34,28.30
2006,07,21,12,35,28.30
2006,07,21,12,36,28.30
2006,07,21,12,37,28.20
2006,07,21,12,38,28.10
2006,07,21,12,39,28.10
2006,07,21,12,40,28.20
2006,07,21,12,41,28.20
2006,07,21,12,42,28.30
2006,07,21,12,43,28.40
2006,07,21,12,44,28.60
2006,07,21,12,45,28.70
2006,07,21,12,46,28.80
2006,07,21,12,47,28.90
2006,07,21,12,48,28.90
2006,07,21,12,49,28.90
2006,07,21,12,50,29.10
2006,07,21,12,51,29.10
2006,07,21,12,52,29.20
2006,07,21,12,53,29.30
2006,07,21,12,54,29.40
2006,07,21,12,55,29.40
2006,07,21,12,56,29.40
2006,07,21,12,57,29.40
2006,07,21,12,58,29.30
2006,07,21,12,59,29.20
2006,07,21,13,00,29.20
2006,07,21,13,01,29.20
2006,07,21,13,02,29.30
2006,07,21,13,03,29.30
2006,07,21,13,04,29.30
2006,07,21,13,05,29.30
2006,07,21,13,06,29.30
2006,07,21,13,07,29.30
2006,07,21,13,08,29.20
2006,07,21,13,09,29.10
2006,07,21,13,10,29.10
2006,07,21,13,11,29.10
2006,07,21,13,12,29.10
2006,07,21,13,13,29.10
2006,07,21,13,14,29.10
2006,07,21,13,15,29.20
2006,07,21,13,16,29.30
2006,07,21,13,17,29.40
2006,07,21,13,18,29.60
2006,07,21,13,19,29.60
2006,07,21,13,20,29.60
2006,07,21,13,21,29.60
2006,07,21,13,22,29.70
2006,07,21,13,23,29.70
2006,07,21,13,24,29.70
2006,07,21,13,25,29.80
2006,07,21,13,26,29.80
2006,07,21,13,27,29.80
2006,07,21,13,28,29.90
2006,07,21,13,29,29.90
2006,07,21,13,30,29.90
2006,07,21,13,31,29.90
2006,07,21,13,32,29.90
2006,07,21,13,33,29.90
2006,07,21,13,34,29.90
2006,07,21,13,35,30.00
2006,07,21,13,36,30.10
2006,07,21,13,37,30.20
2006,07,21,13,38,30.30
2006,07,21,13,39,30.30
2006,07,21,13,40,30.20
2006,07,21,13,41,30.20
2006,07,21,13,42,30.10
2006,07,21,13,43,30.10
2006,07,21,13,44,30.10
2006,07,21,13,45,30.20
2006,07,21,13,46,30.20
2006,07,21,13,47,30.20
2006,07,21,13,48,30.30
2006,07,21,13,49,30.30
2006,07,21,13,50,30.20
2006,07,21,13,51,30.10
2006,07,21,13,52,30.00
2006,07,21,13,53,29.90
2006,07,21,13,54,29.80
2006,07,21,13,55,29.80
2006,07,21,13,56,29.80
2006,07,21,13,57,29.80
2006,07,21,13,58,29.80
2006,07,21,13,59,29.90
2006,07,21,14,00,30.10
2006,07,21,14,01,30.10
2006,07,21,14,02,30.10
2006,07,21,14,03,30.10
2006,07,21,14,04,30.20
2006,07,21,14,05,30.20
2006,07,21,14,06,30.20
2006,07,21,14,07,30.20
2006,07,21,14,08,30.20
2006,07,21,14,09,30.20
2006,07,21,14,10,30.20
2006,07,21,14,11,30.20
2006,07,21,14,12,30.20
2006,07,21,14,13,30.20
2006,07,21,14,14,30.30
2006,07,21,14,15,30.30
2006,07,21,14,16,30.30
2006,07,21,14,17,30.30
2006,07,21,14,18,30.30
2006,07,21,14,19,30.30
2006,07,21,14,20,30.30
2006,07,21,14,21,30.40
2006,07,21,14,22,30.50
2006,07,21,14,23,30.60
2006,07,21,14,24,30.70
2006,07,21,14,25,30.70
2006,07,21,14,26,30.80
2006,07,21,14,27,30.80
2006,07,21,14,28,30.90
2006,07,21,14,29,30.90
2006,07,21,14,30,31.00
2006,07,21,14,31,31.10
2006,07,21,14,32,31.10
2006,07,21,14,33,31.10
2006,07,21,14,34,31.20
2006,07,21,14,35,31.20
2006,07,21,14,36,31.10
2006,07,21,14,37,30.90
2006,07,21,14,38,30.80
2006,07,21,14,39,30.80
2006,07,21,14,40,30.70
2006,07,21,14,41,30.70
2006,07,21,14,42,30.70
2006,07,21,14,43,30.80
2006,07,21,14,44,30.80
2006,07,21,14,45,30.80
2006,07,21,14,46,30.90
2006,07,21,14,47,30.90
2006,07,21,14,48,30.90
2006,07,21,14,49,30.90
2006,07,21,14,50,30.80
2006,07,21,14,51,30.70
2006,07,21,14,52,30.60
2006,07,21,14,53,30.40
2006,07,21,14,54,30.30
2006,07,21,14,55,30.30
2006,07,21,14,56,30.20
2006,07,21,14,57,30.30
2006,07,21,14,58,30.30
2006,07,21,14,59,30.30
2006,07,21,15,00,30.30
2006,07,21,15,01,30.30
2006,07,21,15,02,30.30
2006,07,21,15,03,30.40
2006,07,21,15,04,30.40
2006,07,21,15,05,30.40
2006,07,21,15,06,30.40
2006,07,21,15,07,30.40
2006,07,21,15,08,30.40
2006,07,21,15,09,30.40
2006,07,21,15,10,30.40
2006,07,21,15,11,30.40
2006,07,21,15,12,30.40
2006,07,21,15,13,30.40
2006,07,21,15,14,30.60
2006,07,21,15,15,30.60
2006,07,21,15,16,30.70
2006,07,21,15,17,30.80
2006,07,21,15,18,30.80
2006,07,21,15,19,30.90
2006,07,21,15,20,30.80
2006,07,21,15,21,30.80
2006,07,21,15,22,30.70
2006,07,21,15,23,30.70
2006,07,21,15,24,30.60
2006,07,21,15,25,30.60
2006,07,21,15,26,30.60
2006,07,21,15,27,30.70
2006,07,21,15,28,30.80
2006,07,21,15,29,30.90
2006,07,21,15,30,30.90
2006,07,21,15,31,30.90
2006,07,21,15,32,31.00
2006,07,21,15,33,31.10
2006,07,21,15,34,31.30
2006,07,21,15,35,31.40
2006,07,21,15,36,31.40
2006,07,21,15,37,31.40
2006,07,21,15,38,31.40
2006,07,21,15,39,31.40
2006,07,21,15,40,31.40
2006,07,21,15,41,31.30
2006,07,21,15,42,31.20
2006,07,21,15,43,31.10
2006,07,21,15,44,31.10
2006,07,21,15,45,31.10
2006,07,21,15,46,31.10
2006,07,21,15,47,31.20
2006,07,21,15,48,31.20
2006,07,21,15,49,31.10
2006,07,21,15,50,31.10
2006,07,21,15,51,31.00
2006,07,21,15,52,31.00
2006,07,21,15,53,30.90
2006,07,21,15,54,30.80
2006,07,21,15,55,30.80
2006,07,21,15,56,30.80
2006,07,21,15,57,30.80
2006,07,21,15,58,31.00
2006,07,21,15,59,31.10
2006,07,21,16,00,31.20
2006,07,21,16,01,31.30
2006,07,21,16,02,31.30
2006,07,21,16,03,31.40
2006,07,21,16,04,31.40
2006,07,21,16,05,31.30
2006,07,21,16,06,31.20
2006,07,21,16,07,31.20
2006,07,21,16,08,31.20
2006,07,21,16,09,31.20
2006,07,21,16,10,31.10
2006,07,21,16,11,31.10
2006,07,21,16,12,31.10
2006,07,21,16,13,31.20
2006,07,21,16,14,31.20
2006,07,21,16,15,31.30
2006,07,21,16,16,31.30
2006,07,21,16,17,31.40
2006,07,21,16,18,31.40
2006,07,21,16,19,31.50
2006,07,21,16,20,31.60
2006,07,21,16,21,31.60
2006,07,21,16,22,31.60
2006,07,21,16,23,31.60
2006,07,21,16,24,31.60
2006,07,21,16,25,31.60
2006,07,21,16,26,31.60
2006,07,21,16,27,31.60
2006,07,21,16,28,31.70
2006,07,21,16,29,31.70
2006,07,21,16,30,31.70
2006,07,21,16,31,31.70
2006,07,21,16,32,31.80
2006,07,21,16,33,31.80
2006,07,21,16,34,31.80
2006,07,21,16,35,31.80
2006,07,21,16,36,31.70
2006,07,21,16,37,31.70
2006,07,21,16,38,31.70
2006,07,21,16,39,31.60
2006,07,21,16,40,31.70
2006,07,21,16,41,31.70
2006,07,21,16,42,31.70
2006,07,21,16,43,31.80
2006,07,21,16,44,31.80
2006,07,21,16,45,31.80
2006,07,21,16,46,31.70
2006,07,21,16,47,31.70
2006,07,21,16,48,31.60
2006,07,21,16,49,31.60
2006,07,21,16,50,31.50
2006,07,21,16,51,31.40
2006,07,21,16,52,31.40
2006,07,21,16,53,31.40
2006,07,21,16,54,31.40
2006,07,21,16,55,31.40
2006,07,21,16,56,31.40
2006,07,21,16,57,31.40
2006,07,21,16,58,31.40
2006,07,21,16,59,31.50
2006,07,21,17,00,31.60
2006,07,21,17,01,31.70
2006,07,21,17,02,31.70
2006,07,21,17,03,31.70
2006,07,21,17,04,31.80
2006,07,21,17,05,31.80
2006,07,21,17,06,31.80
2006,07,21,17,07,31.90
2006,07,21,17,08,31.90
2006,07,21,17,09,31.80
2006,07,21,17,10,31.80
2006,07,21,17,11,31.70
2006,07,21,17,12,31.70
2006,07,21,17,13,31.80
2006,07,21,17,14,31.80
2006,07,21,17,15,31.80
2006,07,21,17,16,31.80
2006,07,21,17,17,31.80
2006,07,21,17,18,31.80
2006,07,21,17,19,31.80